[[{"header":{"parameterUnit":"m.s-1","parameterCategory":1,"la1":30.2991,"la2":30.254,"lo1":-89.0895,"lo2":-89.0444,"dy":0.0017,"dx":0.0017,"nx":28,"ny":28,"refTime":"2025-01-23T03:00:00:Z","depth":0,"parameterNumber":2,"parameterNumberName":"U-component_of_WINDS"},"data":[0,0,0,0,0,0,0,0,0,0,0,0,0,0,0,0,0,0,0,0,0,0,0,0,0,0,0,0,0,0,0,0,0,0,0,0,0,0,0,0,0,0,0,0,0,0,0,0,0,0,0,0,0,0,0,0,0,0,0.0631,0.0631,0,0.0601,0.06,0.06,0.062,0.0621,0.0622,0.0623,0.0588,0.0586,0.0584,0,0,0,0,0,0,0,0,0,0,0,0,0,0.0703,0.0702,0.0631,0.0631,0.063,0.0601,0.06,0.06,0.062,0.0621,0.0622,0.0623,0.0588,0.0586,0.0584,0,0,0,0,0,0,0,0,0,0,0,0,0,0.0672,0.0701,0.0631,0.0637,0.0637,0.0601,0.06,0.06,0.062,0.0621,0.0622,0.0624,0.0589,0.0587,0.0584,0.0539,0,0,0.0576,0.0575,0,0,0,0,0,0,0,0,0.0674,0.0669,0.0636,0.0636,0.0636,0.0616,0.0613,0.0579,0.0619,0.0626,0.0623,0.0624,0.0596,0.0593,0.0584,0.0538,0.0536,0.0575,0.0574,0.0573,0.0572,0,0,0,0,0,0,0,0.0676,0.0671,0.0619,0.0636,0.0636,0.064,0.0637,0.0607,0.0603,0.0626,0.0627,0.0623,0.0596,0.0586,0.0583,0.0536,0.0576,0.0573,0.0571,0.057,0.0451,0.0449,0,0,0,0,0,0,0.0678,0.0672,0.062,0.0618,0.0659,0.0637,0.0634,0.0621,0.0604,0.0602,0.0622,0.0624,0.059,0.0586,0.0582,0.0527,0.0573,0.057,0.0569,0.0452,0.045,0.0449,0,0,0,0,0,0,0.0679,0.0673,0.0621,0.0646,0.0639,0.0635,0.0619,0.0619,0.061,0.0601,0.06,0.0613,0.0591,0.0586,0.055,0.0526,0.0569,0.0567,0.0454,0.0452,0.0449,0.0419,0,0,0,0,0,0,0.0681,0.0674,0.0657,0.0645,0.0638,0.059,0.0618,0.0618,0.0605,0.0608,0.0592,0.0591,0.0592,0.0554,0.0547,0.0524,0.0564,0.0456,0.0453,0.045,0.0422,0.0416,0.041,0,0,0,0,0,0.0684,0.0649,0.0656,0.065,0.0618,0.0589,0.0585,0.0587,0.0604,0.0586,0.0581,0.0591,0.0531,0.055,0.0543,0.0518,0.0457,0.0454,0.045,0.0424,0.0417,0.041,0,0,0,0,0,0,0.0657,0.0648,0.0655,0.0616,0.0603,0.0592,0.0571,0.0579,0.0561,0.0564,0.0567,0.0563,0.0525,0.0519,0.054,0.0473,0.0496,0.0491,0.0479,0.0472,0.0466,0.0468,0.0562,0,0,0,0,0,0.0647,0.0626,0.0618,0.0584,0.0577,0.0575,0.0563,0.0566,0.0553,0.0547,0.0539,0.0524,0.0502,0.0487,0.0466,0.0422,0.0417,0.0401,0.0395,0.0391,0.0385,0.036,0.0352,0.0437,0.0437,0.0437,0,0,0.0625,0.0617,0.0603,0.0578,0.0569,0.0545,0.057,0.0545,0.0527,0.0543,0.0508,0.0502,0.0486,0.0445,0.0427,0.0438,0.0362,0.0386,0.0383,0.038,0.0356,0.0348,0.0341,0.0435,0.0435,0.0435,0,0,0.0573,0.0566,0.0536,0.0526,0.0512,0.0511,0.0504,0.0492,0.0488,0.0454,0.0466,0.0444,0.0406,0.0394,0.0382,0.0326,0.0335,0.032,0.0289,0.0264,0.0257,0.0251,0.023,0.0222,0.0315,0.0315,0.0315,0,0.0547,0.0513,0.0519,0.0492,0.048,0.0496,0.0464,0.0455,0.0434,0.0424,0.0438,0.039,0.038,0.0337,0.0323,0.0314,0.0305,0.032,0.0258,0.0252,0.0247,0.0226,0.0218,0.0313,0.0313,0.0313,0.0313,0,0.0481,0.0457,0.0435,0.0415,0.0401,0.0372,0.0373,0.0358,0.0363,0.036,0.0325,0.0314,0.029,0.0281,0.0285,0.0237,0.0245,0.0258,0.0281,0.0237,0.0217,0.0209,0.031,0.0311,0.0311,0.0312,0,0,0.0409,0.0394,0.0385,0.0376,0.0363,0.0344,0.0316,0.0294,0.028,0.0266,0.0241,0.0209,0.0221,0.0208,0.0211,0.019,0.0144,0.0206,0.0206,0.0193,0.0089,0.0078,0.0069,0.0151,0.015,0.0149,0.009,0,0.0354,0.0306,0.0311,0.0264,0.0241,0.0256,0.0231,0.0219,0.0216,0.0196,0.0192,0.0169,0.0188,0.018,0.016,0.0154,0.0123,0.0159,0.0126,0.0125,0.0127,0.0059,0.0046,-0.0009,0.0083,0.0081,0.0081,0,0.0283,0.0267,0.0219,0.0208,0.0199,0.0176,0.0157,0.0138,0.0124,0.0123,0.011,0.0117,0.0087,0.0113,0.0071,0.0095,0.0082,0.0077,0.0075,0.007,0.0098,0.005,-0.0026,-0.0035,0.0069,0.007,0.0071,0,0.0233,0.02,0.0166,0.0158,0.0145,0.0129,0.0123,0.0111,0.0097,0.008,0.0071,0.0051,0.0039,0.0022,0.0023,0.0041,-0.002,0.0006,-0.0023,-0.0024,-0.0039,-0.0039,-0.012,-0.0044,-0.0043,-0.0043,-0.0043,0,0.017,0.0139,0.0143,0.0122,0.0088,0.0094,0.0059,0.0055,0.0044,0.0022,0.0034,0.0012,0.0015,-0.0007,-0.0006,-0.0042,-0.0047,-0.0049,-0.0049,-0.0052,-0.0052,-0.0062,-0.0059,-0.0045,-0.0045,-0.0045,-0.0044,0,0.0107,0.0109,0.0073,0.0064,0.0061,0.0036,0.0028,0.0008,0.0006,-0.0022,-0.0029,-0.0032,-0.0057,-0.0057,-0.0086,-0.0085,-0.013,-0.0124,-0.0125,-0.0125,-0.0154,-0.0153,-0.0247,-0.026,-0.0173,-0.0174,-0.0175,0,0.0066,0.0043,0.0032,0.0018,0.0011,-0.0011,-0.0024,-0.0019,-0.0034,-0.0051,-0.0069,-0.0093,-0.0112,-0.0153,-0.0159,-0.0181,-0.0177,-0.0209,-0.0181,-0.0183,-0.018,-0.018,-0.0183,-0.0215,-0.0216,-0.0217,-0.0217,0,-0.0008,-0.0006,-0.0025,-0.0044,-0.006,-0.0075,-0.0089,-0.0101,-0.0097,-0.0114,-0.0139,-0.0154,-0.0183,-0.0207,-0.0229,-0.0236,-0.0227,-0.0226,-0.0234,-0.0238,-0.0239,-0.0241,-0.0142,-0.0224,-0.0224,-0.0223,-0.0223,-0.0222,-0.0063,-0.0084,-0.0094,-0.0116,-0.0126,-0.0139,-0.0159,-0.0162,-0.0182,-0.0205,-0.02,-0.0229,-0.0242,-0.0269,-0.0279,-0.0302,-0.0291,-0.0303,-0.0306,-0.0309,-0.0314,-0.0233,-0.0305,-0.0305,-0.0305,-0.0305,-0.0305,0,-0.0139,-0.0145,-0.0165,-0.0184,-0.0201,-0.0188,-0.0203,-0.0219,-0.0244,-0.0256,-0.0275,-0.0304,-0.0327,-0.0334,-0.0357,-0.0374,-0.037,-0.038,-0.038,-0.0382,-0.0321,-0.0312,-0.0383,-0.0383,-0.0383,-0.0383,-0.0383,-0.0383,-0.018,-0.0215,-0.0214,-0.0253,-0.0258,-0.0286,-0.0295,-0.0307,-0.0317,-0.035,-0.0369,-0.0372,-0.0383,-0.0406,-0.0428,-0.0429,-0.0439,-0.0451,-0.0451,-0.0394,-0.0387,-0.0379,-0.0371,-0.0453,-0.0453,-0.0511,-0.0511,-0.0512]},{"header":{"parameterUnit":"m.s-1","parameterCategory":1,"la1":30.2991,"la2":30.254,"lo1":-89.0895,"lo2":-89.0444,"dy":0.0017,"dx":0.0017,"nx":28,"ny":28,"refTime":"2025-01-23T03:00:00:Z","depth":0,"parameterNumber":3,"parameterNumberName":"V-component_of_WINDS"},"data":[0,0,0,0,0,0,0,0,0,0,0,0,0,0,0,0,0,0,0,0,0,0,0,0,0,0,0,0,0,0,0,0,0,0,0,0,0,0,0,0,0,0,0,0,0,0,0,0,0,0,0,0,0,0,0,0,0,0,-2.6316,-2.6317,0,-2.6393,-2.6394,-2.6395,-2.6386,-2.6384,-2.6383,-2.6382,-2.6461,-2.6464,-2.6467,0,0,0,0,0,0,0,0,0,0,0,0,0,-2.616,-2.6163,-2.6316,-2.6317,-2.6318,-2.6393,-2.6394,-2.6395,-2.6386,-2.6384,-2.6383,-2.6381,-2.646,-2.6464,-2.6468,0,0,0,0,0,0,0,0,0,0,0,0,0,-2.6232,-2.6164,-2.6316,-2.6322,-2.6324,-2.6393,-2.6394,-2.6396,-2.6386,-2.6384,-2.6382,-2.6381,-2.6459,-2.6463,-2.6468,-2.6536,0,0,-2.6483,-2.6485,0,0,0,0,0,0,0,0,-2.6228,-2.6237,-2.632,-2.6322,-2.6324,-2.6378,-2.6368,-2.6443,-2.6387,-2.6363,-2.6382,-2.638,-2.6435,-2.6442,-2.646,-2.654,-2.6543,-2.6484,-2.6487,-2.6489,-2.649,0,0,0,0,0,0,0,-2.6223,-2.6234,-2.6347,-2.6322,-2.6324,-2.6321,-2.6329,-2.6382,-2.6408,-2.6364,-2.6364,-2.6373,-2.6435,-2.6455,-2.6462,-2.6544,-2.6483,-2.6488,-2.6491,-2.6493,-2.6683,-2.6685,0,0,0,0,0,0,-2.6216,-2.623,-2.6344,-2.6349,-2.627,-2.6326,-2.6335,-2.6362,-2.6408,-2.6413,-2.6375,-2.6373,-2.6448,-2.6456,-2.6465,-2.6547,-2.6489,-2.6493,-2.6496,-2.6681,-2.6683,-2.6686,0,0,0,0,0,0,-2.6213,-2.6226,-2.6341,-2.6289,-2.6304,-2.633,-2.6362,-2.6365,-2.6385,-2.6415,-2.642,-2.6391,-2.6447,-2.6458,-2.6518,-2.6549,-2.6495,-2.65,-2.6678,-2.6682,-2.6685,-2.6711,0,0,0,0,0,0,-2.6208,-2.6225,-2.6251,-2.629,-2.6307,-2.6394,-2.6364,-2.6368,-2.6394,-2.6391,-2.6431,-2.6436,-2.6446,-2.6511,-2.6523,-2.6555,-2.6504,-2.6676,-2.668,-2.6684,-2.6708,-2.6715,-2.6721,0,0,0,0,0,-2.6203,-2.6256,-2.6253,-2.6267,-2.634,-2.6395,-2.6405,-2.6415,-2.6396,-2.6423,-2.6442,-2.6435,-2.6544,-2.6517,-2.6531,-2.6565,-2.6674,-2.6679,-2.6683,-2.6705,-2.6714,-2.6721,0,0,0,0,0,0,-2.622,-2.6261,-2.6258,-2.6325,-2.6357,-2.6394,-2.6427,-2.6424,-2.6462,-2.6458,-2.647,-2.6479,-2.654,-2.6558,-2.6528,-2.6633,-2.6606,-2.6614,-2.6618,-2.6627,-2.6633,-2.6627,-2.6508,0,0,0,0,0,-2.6232,-2.6273,-2.6307,-2.6363,-2.6379,-2.6401,-2.6425,-2.643,-2.6464,-2.6477,-2.6501,-2.6533,-2.6575,-2.6602,-2.6642,-2.6711,-2.6719,-2.6741,-2.6748,-2.6753,-2.6759,-2.6797,-2.6807,-2.6701,-2.6701,-2.6701,0,0,-2.6256,-2.6284,-2.6309,-2.6367,-2.6392,-2.6435,-2.6412,-2.6458,-2.649,-2.6484,-2.6542,-2.6561,-2.6598,-2.6663,-2.6693,-2.668,-2.679,-2.6759,-2.6763,-2.6766,-2.6803,-2.6812,-2.6821,-2.6705,-2.6704,-2.6703,0,0,-2.6322,-2.6348,-2.6397,-2.6423,-2.6461,-2.6475,-2.6487,-2.6524,-2.6536,-2.6595,-2.6592,-2.663,-2.6701,-2.6727,-2.675,-2.6827,-2.6821,-2.6839,-2.6874,-2.6911,-2.6919,-2.6926,-2.6953,-2.6963,-2.6846,-2.6846,-2.6846,0,-2.6348,-2.6412,-2.6423,-2.647,-2.6495,-2.6492,-2.6541,-2.6566,-2.6615,-2.6633,-2.6619,-2.6708,-2.6733,-2.6803,-2.6822,-2.6841,-2.6854,-2.6834,-2.6917,-2.6924,-2.6931,-2.6957,-2.6967,-2.6848,-2.6847,-2.6847,-2.6847,0,-2.6442,-2.6486,-2.6522,-2.6569,-2.6599,-2.6647,-2.6664,-2.6693,-2.6696,-2.6711,-2.6771,-2.6801,-2.6846,-2.6864,-2.6867,-2.6935,-2.6926,-2.6914,-2.6888,-2.6943,-2.6967,-2.6977,-2.685,-2.685,-2.6849,-2.6849,0,0,-2.6521,-2.6574,-2.6586,-2.6608,-2.665,-2.6685,-2.6733,-2.6777,-2.6801,-2.6836,-2.6876,-2.6937,-2.6926,-2.6952,-2.6958,-2.699,-2.7048,-2.6974,-2.6975,-2.6986,-2.7124,-2.7133,-2.7144,-2.7045,-2.7047,-2.7049,-2.7121,0,-2.6591,-2.6676,-2.6686,-2.6761,-2.6803,-2.68,-2.6842,-2.6872,-2.6888,-2.6925,-2.6942,-2.6985,-2.6968,-2.6983,-2.7015,-2.7034,-2.7076,-2.7029,-2.7082,-2.7084,-2.7072,-2.7157,-2.7166,-2.7233,-2.7131,-2.7132,-2.7134,0,-2.6684,-2.6721,-2.68,-2.6836,-2.6854,-2.6891,-2.6933,-2.6968,-2.7003,-2.7012,-2.7041,-2.7043,-2.7092,-2.7064,-2.7132,-2.71,-2.7123,-2.7136,-2.7139,-2.7144,-2.7112,-2.7163,-2.7254,-2.7264,-2.7149,-2.7147,-2.7146,0,-2.6733,-2.6802,-2.6859,-2.6877,-2.6921,-2.6947,-2.6966,-2.6999,-2.7025,-2.7061,-2.7078,-2.712,-2.7143,-2.7175,-2.7189,-2.7167,-2.7256,-2.7229,-2.7265,-2.7264,-2.7283,-2.7282,-2.7378,-2.7299,-2.7298,-2.7298,-2.7298,0,-2.681,-2.6858,-2.6881,-2.6916,-2.697,-2.6982,-2.7035,-2.7053,-2.7082,-2.712,-2.7121,-2.7156,-2.7172,-2.721,-2.7221,-2.7275,-2.7286,-2.7294,-2.7297,-2.7294,-2.7293,-2.7309,-2.7304,-2.7301,-2.73,-2.73,-2.7299,0,-2.6874,-2.6891,-2.6952,-2.6988,-2.6999,-2.7037,-2.7068,-2.7101,-2.7117,-2.7165,-2.7177,-2.7201,-2.7246,-2.7262,-2.7317,-2.7324,-2.7387,-2.7386,-2.7375,-2.7376,-2.741,-2.7407,-2.752,-2.7535,-2.7446,-2.7447,-2.7447,0,-2.6921,-2.6959,-2.6999,-2.7024,-2.7044,-2.7085,-2.7112,-2.7125,-2.7153,-2.7194,-2.7223,-2.7267,-2.7304,-2.7376,-2.7398,-2.744,-2.7439,-2.7476,-2.7445,-2.7442,-2.7439,-2.7437,-2.744,-2.7481,-2.7482,-2.7483,-2.7484,0,-2.7004,-2.7011,-2.7049,-2.709,-2.7122,-2.7155,-2.7187,-2.7208,-2.7226,-2.7257,-2.7303,-2.7331,-2.7387,-2.7431,-2.7474,-2.7494,-2.7492,-2.7493,-2.7504,-2.7501,-2.7493,-2.7498,-2.739,-2.749,-2.749,-2.7489,-2.7489,-2.7489,-2.7061,-2.7094,-2.7127,-2.717,-2.7195,-2.7225,-2.7258,-2.7277,-2.7316,-2.7362,-2.7368,-2.7417,-2.745,-2.7507,-2.7529,-2.7568,-2.7558,-2.7573,-2.7577,-2.758,-2.7582,-2.7488,-2.7576,-2.7575,-2.7575,-2.7575,-2.7575,0,-2.7143,-2.7164,-2.7203,-2.7248,-2.7282,-2.7277,-2.7312,-2.7341,-2.7384,-2.7415,-2.745,-2.7503,-2.7546,-2.7572,-2.7615,-2.7641,-2.7641,-2.7651,-2.7649,-2.7654,-2.7589,-2.7575,-2.7651,-2.7651,-2.7651,-2.765,-2.765,-2.765,-2.719,-2.7245,-2.7255,-2.7323,-2.7344,-2.7392,-2.7412,-2.744,-2.7465,-2.7523,-2.7559,-2.7575,-2.7604,-2.765,-2.7689,-2.7695,-2.7711,-2.7722,-2.7728,-2.7666,-2.7659,-2.7651,-2.7638,-2.7726,-2.7726,-2.779,-2.779,-2.7791]}]]